This is the latest recevied weather packets stored in our database for station/object KC5TIL. If no packets are shown the sender has not sent any weather packets the latest 1 day(s).
| Time | Temp. | Humidity | Pressure | Rain* | Wind** | Luminosity | Snow |
|---|---|---|---|---|---|---|---|
| 1777991050 | 24.44° C | 79% | 1006.7 hPa | 0 mm | 0.45 m/s, 92° | 244 W/m² | - |
| 1777990748 | 24.44° C | 80% | 1006.5 hPa | 0 mm | 0.89 m/s, 150° | 197 W/m² | - |
| 1777990445 | 23.89° C | 80% | 1006.5 hPa | 0 mm | 2.24 m/s, 180° | 192 W/m² | - |
| 1777990141 | 23.89° C | 80% | 1006.3 hPa | 0 mm | 1.34 m/s, 153° | 178 W/m² | - |
| 1777989838 | 23.89° C | 80% | 1006.1 hPa | 0 mm | 1.34 m/s, 154° | 199 W/m² | - |
| 1777989535 | 23.89° C | 81% | 1006.1 hPa | 0 mm | 1.79 m/s, 112° | 198 W/m² | - |
| 1777989231 | 23.89° C | 81% | 1006.1 hPa | 0 mm | 0.45 m/s, 144° | 162 W/m² | - |
| 1777988927 | 23.33° C | 82% | 1006.2 hPa | 0 mm | 0.45 m/s, 195° | 172 W/m² | - |
| 1777988625 | 23.33° C | 82% | 1006.2 hPa | 0 mm | 0.89 m/s, 120° | 144 W/m² | - |
| 1777988321 | 23.33° C | 82% | 1006.2 hPa | 0 mm | 1.34 m/s, 200° | 180 W/m² | - |
| 1777988018 | 23.33° C | 82% | 1006.3 hPa | 0 mm | 0.45 m/s, 125° | 172 W/m² | - |
| 1777987713 | 23.33° C | 83% | 1006.2 hPa | 0 mm | 1.34 m/s, 159° | 166 W/m² | - |
| 1777987411 | 22.78° C | 83% | 1006.2 hPa | 0 mm | 0 m/s | 180 W/m² | - |
| 1777987108 | 22.78° C | 85% | 1006 hPa | 0 mm | 0.89 m/s, 183° | 136 W/m² | - |
| 1777986806 | 22.22° C | 86% | 1006 hPa | 0 mm | 0.89 m/s, 135° | 112 W/m² | - |
| 1777986503 | 22.22° C | 86% | 1006.2 hPa | 0 mm | 0.45 m/s, 134° | 88 W/m² | - |
| 1777986201 | 22.22° C | 86% | 1006.3 hPa | 0 mm | 0.45 m/s, 125° | 78 W/m² | - |
| 1777985898 | 21.67° C | 87% | 1006.1 hPa | 0 mm | 0.89 m/s, 168° | 77 W/m² | - |
| 1777985595 | 21.67° C | 87% | 1005.8 hPa | 0 mm | 0.45 m/s, 148° | 71 W/m² | - |
| 1777985292 | 21.67° C | 87% | 1006 hPa | 0 mm | 0.45 m/s, 208° | 61 W/m² | - |
| 1777984989 | 21.67° C | 88% | 1005.9 hPa | 0 mm | 0.89 m/s, 144° | 58 W/m² | - |
| 1777984684 | 21.67° C | 88% | 1006 hPa | 0 mm | 0 m/s | 45 W/m² | - |
| 1777984381 | 21.67° C | 89% | 1005.6 hPa | 0 mm | 0.45 m/s, 175° | 41 W/m² | - |
| 1777984077 | 21.11° C | 89% | 1005.8 hPa | 0 mm | 0 m/s | 35 W/m² | - |
| 1777983775 | 21.11° C | 89% | 1005.8 hPa | 0 mm | 0.45 m/s, 156° | 28 W/m² | - |
* Rain latest hour (hover to see other rain measurements)
** Current wind speed in m/s (hover to see current wind gust speed)